[[{"header":{"parameterUnit":"m.s-1","parameterCategory":1,"la1":30.2991,"la2":30.254,"lo1":-89.0895,"lo2":-89.0444,"dy":0.0017,"dx":0.0017,"nx":28,"ny":28,"refTime":"2026-02-06T03:00:00:Z","depth":0,"parameterNumber":2,"parameterNumberName":"U-component_of_WINDS"},"data":[0,0,0,0,0,0,0,0,0,0,0,0,0,0,0,0,0,0,0,0,0,0,0,0,0,0,0,0,0,0,0,0,0,0,0,0,0,0,0,0,0,0,0,0,0,0,0,0,0,0,0,0,0,0,0,0,0,0,4.8912,4.8914,0,4.9095,4.9097,4.9099,4.9032,4.9028,4.9024,4.902,4.9213,4.9222,4.923,0,0,0,0,0,0,0,0,0,0,0,0,0,4.851,4.8518,4.8912,4.8914,4.8917,4.9094,4.9097,4.9099,4.9033,4.9028,4.9023,4.9018,4.921,4.922,4.9231,0,0,0,0,0,0,0,0,0,0,0,0,0,4.8688,4.852,4.8912,4.8905,4.8906,4.9094,4.9097,4.91,4.9034,4.9028,4.9021,4.9016,4.9206,4.9219,4.9233,4.944,0,0,4.9274,4.928,0,0,0,0,0,0,0,0,4.8678,4.8703,4.8903,4.8906,4.8907,4.9034,4.9026,4.9214,4.9035,4.8986,4.902,4.9013,4.9159,4.9176,4.9224,4.9449,4.9458,4.9275,4.9283,4.9289,4.9293,0,0,0,0,0,0,0,4.8666,4.8694,4.8984,4.8906,4.8909,4.8894,4.8912,4.9061,4.9105,4.8989,4.8985,4.9007,4.9159,4.9211,4.9228,4.946,4.9275,4.9287,4.9295,4.93,4.9863,4.9869,0,0,0,0,0,0,4.8652,4.8685,4.8979,4.899,4.8775,4.8906,4.8927,4.9,4.9103,4.9113,4.9012,4.9003,4.9191,4.9212,4.9234,4.9482,4.9289,4.9302,4.9309,4.9856,4.9864,4.9872,0,0,0,0,0,0,4.8643,4.8679,4.8971,4.8836,4.8872,4.8919,4.9002,4.9007,4.9059,4.912,4.9128,4.9057,4.9187,4.9215,4.9389,4.9488,4.9308,4.932,4.9848,4.9859,4.9868,4.998,0,0,0,0,0,0,4.8632,4.8676,4.8755,4.8838,4.888,4.9122,4.9008,4.9015,4.9082,4.9072,4.9165,4.9174,4.9184,4.9369,4.9402,4.9503,4.9331,4.9839,4.9853,4.9865,4.9968,4.9993,5.0014,0,0,0,0,0,4.8618,4.8781,4.8759,4.8795,4.8979,4.9127,4.9151,4.9158,4.909,4.9169,4.9209,4.9171,4.9472,4.9387,4.9424,4.9531,4.9833,4.9849,4.9864,4.9957,4.9988,5.0014,0,0,0,0,0,0,4.871,4.8792,4.8768,4.8963,4.9038,4.9116,4.9216,4.919,4.9288,4.9275,4.9281,4.9303,4.948,4.9523,4.9427,4.9736,4.9642,4.9666,4.9701,4.9731,4.9753,4.9739,4.9342,0,0,0,0,0,4.8752,4.8865,4.8931,4.9096,4.9135,4.9169,4.9235,4.9232,4.9312,4.9344,4.9396,4.9476,4.9588,4.9662,4.9769,4.9974,4.9993,5.0066,5.0089,5.0108,5.0128,5.0237,5.027,4.9922,4.9922,4.9922,0,0,4.8842,4.89,4.8972,4.9116,4.9174,4.9291,4.9197,4.9325,4.9412,4.9364,4.9529,4.9571,4.966,4.985,4.9936,4.9891,5.0228,5.0127,5.0142,5.0152,5.0256,5.0289,5.0318,4.9933,4.9931,4.9929,0,0,4.9064,4.9121,4.9263,4.9323,4.9411,4.9432,4.9467,4.9548,4.9573,4.9738,4.9704,4.9809,5.0002,5.0066,5.0125,5.037,5.0338,5.0405,5.0526,5.0633,5.066,5.0685,5.077,5.0801,5.0425,5.0425,5.0425,0,4.9165,4.9338,4.934,4.947,4.9534,4.9494,4.9638,4.9697,4.9817,4.9862,4.981,5.005,5.0108,5.031,5.037,5.0419,5.0458,5.0393,5.0656,5.068,5.0703,5.0785,5.0817,5.0432,5.0431,5.0431,5.043,0,4.9456,4.9577,4.9682,4.9795,4.9871,5.0009,5.0032,5.0109,5.01,5.0128,5.0296,5.0364,5.0482,5.0531,5.0525,5.0733,5.0701,5.0653,5.0559,5.0743,5.082,5.0851,5.0443,5.044,5.0438,5.0436,0,0,4.9742,4.9853,4.9891,4.9941,5.0035,5.0129,5.0264,5.0378,5.0443,5.0527,5.064,5.0804,5.0758,5.0825,5.0826,5.092,5.1107,5.0859,5.0862,5.0901,5.1337,5.1372,5.1408,5.1087,5.1093,5.1098,5.1329,0,4.997,5.0204,5.0209,5.0424,5.0535,5.0498,5.0615,5.0686,5.0716,5.0815,5.0848,5.0963,5.0895,5.0934,5.1026,5.1065,5.1194,5.1048,5.1192,5.1197,5.1169,5.1448,5.1486,5.17,5.1359,5.1364,5.1368,0,5.0267,5.0357,5.0583,5.0658,5.0705,5.0811,5.0914,5.1009,5.1089,5.1103,5.1176,5.1163,5.1301,5.1204,5.1394,5.1295,5.1354,5.1382,5.1391,5.1403,5.1293,5.1466,5.1769,5.1801,5.1416,5.1412,5.1409,0,5.0449,5.0628,5.0785,5.083,5.0923,5.0997,5.104,5.1113,5.118,5.1272,5.1315,5.1422,5.1481,5.1565,5.1581,5.1509,5.1771,5.1675,5.1787,5.1786,5.1842,5.1838,5.2157,5.1884,5.1884,5.1883,5.1883,0,5.0702,5.0841,5.0868,5.0964,5.1119,5.1124,5.1277,5.1314,5.138,5.1483,5.1459,5.1557,5.1573,5.1676,5.169,5.1844,5.1872,5.1887,5.1889,5.1888,5.1886,5.1926,5.1911,5.1892,5.189,5.1888,5.1887,0,5.0932,5.0955,5.1124,5.1197,5.1219,5.1329,5.1392,5.1485,5.1511,5.1642,5.1674,5.1715,5.1834,5.1858,5.2001,5.201,5.2192,5.2181,5.2165,5.2163,5.2272,5.226,5.2626,5.2673,5.2371,5.2374,5.2377,0,5.109,5.1196,5.128,5.1346,5.1391,5.15,5.1567,5.1576,5.1648,5.1745,5.1826,5.1942,5.2035,5.2227,5.227,5.2378,5.2367,5.2488,5.2383,5.2379,5.2367,5.2359,5.2369,5.2508,5.2511,5.2513,5.2516,0,5.1369,5.1375,5.1472,5.1573,5.1654,5.1735,5.1812,5.1868,5.1888,5.197,5.2089,5.2161,5.2304,5.2419,5.2526,5.2571,5.2547,5.2548,5.2579,5.2579,5.2564,5.2571,5.2217,5.254,5.2537,5.2535,5.2534,5.2533,5.1566,5.1657,5.173,5.1838,5.1897,5.1968,5.2058,5.2094,5.2193,5.2308,5.2309,5.2439,5.2515,5.2657,5.2709,5.2811,5.2774,5.2819,5.283,5.2841,5.285,5.2549,5.2831,5.2831,5.283,5.283,5.2829,0,5.1841,5.1885,5.1986,5.2092,5.2178,5.2145,5.2229,5.2302,5.2417,5.2489,5.258,5.2717,5.2828,5.2879,5.2989,5.3061,5.3053,5.3089,5.3083,5.3094,5.2879,5.2839,5.3094,5.3094,5.3094,5.3094,5.3094,5.3094,5.1994,5.2146,5.216,5.234,5.2384,5.2509,5.2559,5.2625,5.2682,5.2835,5.2926,5.2958,5.3023,5.3136,5.3236,5.3249,5.329,5.3331,5.3339,5.3136,5.3109,5.3083,5.3047,5.3341,5.3341,5.3545,5.3547,5.3548]},{"header":{"parameterUnit":"m.s-1","parameterCategory":1,"la1":30.2991,"la2":30.254,"lo1":-89.0895,"lo2":-89.0444,"dy":0.0017,"dx":0.0017,"nx":28,"ny":28,"refTime":"2026-02-06T03:00:00:Z","depth":0,"parameterNumber":3,"parameterNumberName":"V-component_of_WINDS"},"data":[0,0,0,0,0,0,0,0,0,0,0,0,0,0,0,0,0,0,0,0,0,0,0,0,0,0,0,0,0,0,0,0,0,0,0,0,0,0,0,0,0,0,0,0,0,0,0,0,0,0,0,0,0,0,0,0,0,0,3.0834,3.0835,0,3.0888,3.0889,3.0889,3.0855,3.0854,3.0852,3.0851,3.0904,3.0906,3.0909,0,0,0,0,0,0,0,0,0,0,0,0,0,3.0697,3.07,3.0834,3.0835,3.0835,3.0888,3.0889,3.089,3.0856,3.0854,3.0852,3.085,3.0903,3.0906,3.091,0,0,0,0,0,0,0,0,0,0,0,0,0,3.0755,3.0701,3.0834,3.0825,3.0825,3.0888,3.0889,3.089,3.0856,3.0854,3.0851,3.0849,3.0902,3.0906,3.091,3.0985,0,0,3.0923,3.0925,0,0,0,0,0,0,0,0,3.0752,3.076,3.0826,3.0826,3.0825,3.0863,3.086,3.0922,3.0857,3.0844,3.0851,3.0848,3.0892,3.0897,3.0912,3.0987,3.099,3.0924,3.0926,3.0928,3.0929,0,0,0,0,0,0,0,3.0748,3.0757,3.0855,3.0826,3.0826,3.0817,3.0822,3.0872,3.0881,3.0845,3.0843,3.085,3.0891,3.0908,3.0913,3.099,3.0924,3.0927,3.093,3.0932,3.1127,3.1129,0,0,0,0,0,0,3.0745,3.0754,3.0854,3.0857,3.0782,3.0821,3.0827,3.0853,3.088,3.0882,3.0852,3.0848,3.0902,3.0908,3.0915,3.1003,3.0928,3.0932,3.0935,3.1124,3.1128,3.113,0,0,0,0,0,0,3.0742,3.0754,3.0852,3.0805,3.0817,3.0826,3.0855,3.0855,3.0872,3.0885,3.0886,3.0867,3.09,3.0909,3.0967,3.1004,3.0934,3.0938,3.1121,3.1125,3.1129,3.118,0,0,0,0,0,0,3.0738,3.0753,3.0783,3.0806,3.0819,3.0904,3.0858,3.0858,3.088,3.0876,3.09,3.0902,3.0899,3.0961,3.0972,3.1009,3.0942,3.1118,3.1123,3.1128,3.1175,3.1185,3.1194,0,0,0,0,0,3.0733,3.0795,3.0784,3.0797,3.0857,3.0907,3.0914,3.091,3.0883,3.0912,3.092,3.0901,3.0998,3.0967,3.0979,3.1018,3.1116,3.1122,3.1127,3.1171,3.1183,3.1193,0,0,0,0,0,0,3.0775,3.0798,3.0787,3.0858,3.0881,3.0901,3.0937,3.0924,3.0954,3.0949,3.0942,3.0948,3.1009,3.1019,3.0984,3.109,3.1053,3.1061,3.1082,3.1093,3.1102,3.1098,3.0945,0,0,0,0,0,3.0793,3.0833,3.085,3.0911,3.0923,3.0928,3.095,3.0945,3.0968,3.0977,3.099,3.1012,3.1047,3.1071,3.1104,3.1176,3.118,3.1209,3.1218,3.1225,3.1233,3.1269,3.1282,3.1149,3.1149,3.1149,0,0,3.083,3.0847,3.0872,3.0919,3.0937,3.0977,3.0937,3.0981,3.101,3.0984,3.104,3.105,3.1074,3.1139,3.1168,3.115,3.127,3.1233,3.1239,3.1242,3.1277,3.1289,3.13,3.1153,3.1153,3.1152,0,0,3.0916,3.0934,3.0986,3.1004,3.1031,3.1033,3.1046,3.1068,3.1074,3.113,3.111,3.1144,3.1206,3.1223,3.124,3.1332,3.1315,3.1343,3.1392,3.1428,3.1438,3.1447,3.1478,3.149,3.135,3.135,3.1351,0,3.0958,3.1019,3.1014,3.106,3.108,3.1059,3.111,3.1127,3.1163,3.1177,3.1156,3.1232,3.1247,3.1315,3.1337,3.1352,3.1364,3.134,3.1437,3.1446,3.1455,3.1484,3.1496,3.1354,3.1353,3.1353,3.1353,0,3.1068,3.1111,3.1149,3.1184,3.1209,3.1258,3.1259,3.1284,3.1276,3.1281,3.1337,3.1354,3.139,3.1406,3.1399,3.1472,3.146,3.1438,3.14,3.1471,3.1498,3.151,3.1358,3.1357,3.1356,3.1355,0,0,3.1184,3.1215,3.1229,3.1244,3.1271,3.1303,3.135,3.1385,3.1406,3.1431,3.1469,3.1521,3.15,3.152,3.1514,3.1546,3.1615,3.152,3.152,3.1536,3.1695,3.1711,3.1724,3.1604,3.1606,3.1608,3.1693,0,3.1272,3.1354,3.135,3.1426,3.1464,3.1443,3.1483,3.1503,3.1508,3.154,3.1545,3.1581,3.1552,3.1564,3.1594,3.16,3.1647,3.1594,3.1638,3.1639,3.1632,3.1739,3.1756,3.1835,3.1704,3.1706,3.1707,0,3.1385,3.1414,3.1494,3.1514,3.1529,3.1566,3.1597,3.1628,3.1649,3.1651,3.1672,3.1661,3.1706,3.1666,3.1727,3.1692,3.1709,3.1715,3.1718,3.1721,3.1677,3.1744,3.186,3.1872,3.1724,3.1723,3.1722,0,3.146,3.1519,3.1574,3.1587,3.1612,3.1638,3.1649,3.1668,3.1689,3.1716,3.1729,3.176,3.1778,3.1801,3.1798,3.177,3.186,3.1821,3.1861,3.1861,3.1881,3.1879,3.2,3.1893,3.1893,3.1893,3.1893,0,3.1557,3.1607,3.1607,3.1641,3.1695,3.169,3.1743,3.1751,3.1768,3.1802,3.1785,3.1817,3.1812,3.1843,3.1841,3.1891,3.1899,3.19,3.1899,3.1901,3.1901,3.1912,3.1906,3.1896,3.1895,3.1895,3.1894,0,3.165,3.1653,3.1711,3.1729,3.1735,3.1774,3.1789,3.182,3.1823,3.1866,3.1876,3.1881,3.1916,3.1916,3.1957,3.1955,3.2016,3.2009,3.2009,3.2007,3.2047,3.2043,3.2179,3.2195,3.2079,3.208,3.2081,0,3.1712,3.1749,3.1772,3.1793,3.1806,3.1842,3.1863,3.1858,3.188,3.1906,3.1934,3.1968,3.1996,3.2054,3.206,3.2091,3.2084,3.2129,3.2088,3.2089,3.2083,3.208,3.2083,3.2137,3.2138,3.2139,3.214,0,3.1821,3.182,3.1851,3.1883,3.1909,3.1933,3.1956,3.1974,3.1971,3.1997,3.2034,3.2055,3.2096,3.213,3.2159,3.2169,3.2154,3.2153,3.2164,3.2166,3.2164,3.2164,3.203,3.215,3.2149,3.2148,3.2148,3.2147,3.1899,3.1931,3.1951,3.1986,3.2002,3.2023,3.2053,3.206,3.2091,3.2124,3.2119,3.216,3.2178,3.2216,3.2229,3.2259,3.2243,3.2259,3.2263,3.2266,3.227,3.216,3.2265,3.2264,3.2264,3.2264,3.2264,0,3.2006,3.2018,3.205,3.2082,3.2109,3.2093,3.2116,3.214,3.2176,3.2195,3.2222,3.2263,3.2295,3.2304,3.2334,3.2357,3.2351,3.2365,3.2363,3.2365,3.2284,3.2271,3.237,3.237,3.237,3.237,3.237,3.237,3.2065,3.2117,3.2118,3.2177,3.2188,3.2228,3.2243,3.2262,3.2277,3.2323,3.235,3.2356,3.237,3.2401,3.243,3.2431,3.2443,3.246,3.2458,3.2382,3.2371,3.2361,3.2349,3.2463,3.2463,3.2537,3.2538,3.2538]}]]